Deer Park, WA

10:02 PM PST on February 17, 2018 (GMT -0800)
Deer Park

Weather History for KDEW - November, 2012

Change the Weather History Date:

Wednesday, November 7, 2012

  Actual Average Record
Temperature  
Mean Temperature 38 °F 37 °F  
Max Temperature 52 °F 46 °F 59 °F (2006)
Min Temperature 23 °F 28 °F 13 °F (2011)
Degree Days  
Heating Degree Days 27 28  
Month to date heating degree days 133 191  
Since 1 July heating degree days 1045 1259  
Cooling Degree Days 0 0  
Month to date cooling degree days 0 0  
Year to date cooling degree days 232 187  
Moisture  
Dew Point 32 °F    
Average Humidity 69    
Maximum Humidity 100    
Minimum Humidity 38    
Precipitation  
Precipitation T in 0.10 in 0.69 in (2013)
Month to date precipitation 0.17 0.71  
Year to date precipitation 20.17 16.77  
Sea Level Pressure  
Sea Level Pressure 29.97 in    
Wind  
Wind Speed 7 mph (SSW)    
Max Wind Speed 17 mph    
Max Gust Speed 23 mph    
Visibility 9 miles    
Events Rain    
T = Trace of Precipitation, MM = Missing Value Source: NWS Daily Summary

Daily Weather History Graph

Daily Weather History Graph

Search for Another Location

Airport or City:

Trip Planner

Search our weather history database for the weather conditions in past years. The results will help you decide how hot, cold, wet, or windy it might be!

Date:

Astronomy

Nov. 07, 2012 Rise Set
Actual Time 6:44 AM PST 4:21 PM PST
Civil Twilight 6:11 AM PST 4:54 PM PST
Nautical Twilight 5:34 AM PST 5:31 PM PST
Astronomical Twilight 4:58 AM PST 6:07 PM PST
Moon No Moon Rise 1:00 PM PST (11/7)
Length of Visible Light 10h 43m
Length of Day
9h 36m
Last Quarter, 42% of the Moon is Illuminated
Nov 7
Last Quarter
Nov 13
New
Nov 20
First Quarter
Nov 28
Full
Dec 6
Last Quarter

Hourly Weather History & Observations

Time (PST) Temp. Windchill Dew Point Humidity Pressure Visibility Wind Dir Wind Speed Gust Speed Precip Events Conditions
12:15 AM 51.8 °F - 50.0 °F 94% 29.86 in 4.0 mi SSE 6.9 mph - 0.00 in Rain Light Rain
12:53 AM 51.1 °F - 50.0 °F 96% 29.87 in 4.0 mi South 8.1 mph - 0.00 in   Overcast
1:50 AM 50.0 °F - 48.2 °F 94% 29.87 in 5.0 mi South 10.4 mph - N/A   Overcast
1:53 AM 50.0 °F - 48.9 °F 96% 29.87 in 5.0 mi South 10.4 mph - N/A   Overcast
2:53 AM 48.9 °F - 46.9 °F 93% 29.87 in 6.0 mi South 6.9 mph - N/A   Overcast
4:53 AM 42.1 °F 37.1 °F 37.9 °F 85% 29.90 in 10.0 mi South 8.1 mph - N/A   Clear
5:53 AM 37.9 °F 33.5 °F 32.0 °F 79% 29.93 in 10.0 mi SE 5.8 mph - N/A   Clear
6:53 AM 37.9 °F 31.5 °F 30.9 °F 76% 29.96 in 10.0 mi South 9.2 mph - N/A   Clear
7:53 AM 41.0 °F 34.3 °F 32.0 °F 70% 29.96 in 10.0 mi South 11.5 mph - N/A   Clear
8:53 AM 45.0 °F 40.1 °F 32.0 °F 60% 29.97 in 10.0 mi SW 9.2 mph - N/A   Clear
9:53 AM 48.9 °F - 30.0 °F 48% 29.97 in 10.0 mi SW 9.2 mph - N/A   Partly Cloudy
10:53 AM 48.9 °F - 30.0 °F 48% 29.98 in 10.0 mi SW 12.7 mph - N/A   Overcast
11:53 AM 51.1 °F - 30.0 °F 44% 29.98 in 10.0 mi SW 12.7 mph - N/A   Clear
12:53 PM 51.1 °F - 28.0 °F 41% 29.99 in 10.0 mi SSW 11.5 mph - N/A   Clear
1:53 PM 51.1 °F - 27.0 °F 39% 29.99 in 10.0 mi SSW 12.7 mph - N/A   Partly Cloudy
2:53 PM 50.0 °F - 26.1 °F 39% 30.00 in 10.0 mi SSW 12.7 mph - N/A   Clear
3:53 PM 46.9 °F - 24.1 °F 41% 30.01 in 10.0 mi SW 6.9 mph - N/A   Clear
4:53 PM 35.1 °F - 26.1 °F 70% 30.04 in 10.0 mi Calm Calm - N/A   Clear
5:53 PM 30.9 °F - 26.1 °F 82% 30.06 in 10.0 mi Calm Calm - N/A   Clear
6:53 PM 28.9 °F 21.9 °F 25.0 °F 85% 30.06 in 10.0 mi SE 6.9 mph - N/A   Clear
7:53 PM 27.0 °F 21.6 °F 24.1 °F 89% 30.06 in 10.0 mi SE 4.6 mph - N/A   Clear
8:53 PM 27.0 °F - 24.1 °F 89% 30.04 in 10.0 mi Calm Calm - N/A   Clear
9:53 PM 27.0 °F - 24.1 °F 89% 30.04 in 10.0 mi Calm Calm - N/A   Clear
10:53 PM 25.0 °F - 23.0 °F 92% 30.02 in 10.0 mi Calm Calm - N/A   Clear
11:53 PM 24.1 °F 19.7 °F 21.9 °F 91% 30.01 in 10.0 mi NNW 3.5 mph - N/A   Clear